User: anonymous   Login
Location: B?ezina
(49.8085°N, 13.6013°E)
Time: 03:50:16
(UTC+00:00)
Language:

Iridium 4 Rocket - Orbit

View from above orbital plane
View from above orbital plane
View from above satellite
View from above satellite

Ground track
Ground track

The orbit data is extracted from the following two-line orbital elements,

1 24797U 97020F   25194.51393819  .00000748  00000-0  14730-3 0  9994
2 24797  86.8963 352.3178 0215461 195.0205 231.3086 14.47334988483594
Epoch (UTC): 13 July 2025 12:20:04
Eccentricity: 0.0215461
inclination: 86.8963°
perigee height: 581 km
apogee height: 887 km
right ascension of ascending node: 352.3178°
argument of perigee: 195.0205°
revolutions per day: 14.47334988
mean anomaly at epoch: 231.3086°
orbit number at epoch: 48359

The dashed part of the orbit path shows where the satellite is in the earth's shadow,  

DLR